Regional Weather Roundup
Issued by NWS

Home | Current Version | Previous Version | Text Only | Print | Product List | Glossary On
Versions: 1 2 3 4 5 6 7 8 9 10 11 12 13 14 15 16 17 18 19 20 21 22 23 24 25 26 27 28 29 30 31 32 33 34 35 36 37 38 39 40 41 42 43 44 45 46 47 48 49 50
000
ASUS43 KMPX 201310
RWRMN
WEATHER ROUNDUP FOR MINNESOTA
NATIONAL WEATHER SERVICE TWIN CITIES/CHANHASSEN MN
800 AM CDT WED AUG 20 2014


NOTE: "FAIR" INDICATES FEW OR NO CLOUDS BELOW 12,000 FEET WITH NO
SIGNIFICANT WEATHER AND/OR OBSTRUCTIONS TO VISIBILITY. N/A MEANS
CURRENT SKY AND/OR WEATHER CONDITIONS ARE NOT AVAILABLE.

MNZ060>063-068>070-201400-
   Twin Cities Metro

CITY           SKY/WX    TMP DP  RH WIND       PRES   REMARKS
TWIN CITIES    MOSUNNY   68  64  87 E8        29.86R
ST PAUL        SUNNY     66  63  90 E6        29.86R
CRYSTAL        SUNNY     68  62  81 SE5       29.85R
BLAINE         CLOUDY    66  66 100 E5        29.86R
LAKEVILLE      FOG       63  63 100 CALM      29.88R VSB<1/4
EDEN PRAIRIE   MOSUNNY   66  66 100 SW3       29.87R FOG
SOUTH ST PAUL  SUNNY     66  64  90 CALM      29.86R
LAKE ELMO      FAIR      63  63 100 CALM      29.87R
$$
MNZ001>005-007-008-013>017-022>024-027-028-201400-
   Northwest Minnesota

CITY           SKY/WX    TMP DP  RH WIND       PRES   REMARKS
BEMIDJI        SUNNY     63  62  96 E5        29.85F
HALLOCK        SUNNY     66  63  88 SE7       29.80R
ROSEAU         SUNNY     66  61  82 SE6       29.83F
WARROAD        SUNNY     64  61  88 SE5       29.85S
THIEF RVR FALL SUNNY     63  61  94 SE6       29.83R
CROOKSTON      SUNNY     66  63  88 SE7       29.81S
FOSSTON        SUNNY     64  61  88 CALM      29.85R
DETROIT LAKES  SUNNY     64  63  94 SE8       29.85R
MOORHEAD       SUNNY     66  66 100 SE7       29.80S
PARK RAPIDS    FOG       61  61 100 SE5       29.86R VSB 1/4
MAHNOMEN       FAIR      64  62  92 SE6       29.83R
$$
MNZ006-009>011-018-025>026-201400-
   North Central Minnesota

CITY           SKY/WX    TMP DP  RH WIND       PRES   REMARKS
BAUDETTE       PTSUNNY   62  59  90 CALM      29.86S
FLAG ISLAND    SUNNY     68  63  83 S7        29.84S
INTL FALLS     MOSUNNY   60  59  96 SE3       29.88F
WASKISH        SUNNY     61  61 100 CALM      29.87R
BIG FORK       PTSUNNY   55  54  94 CALM      29.89R
LONGVILLE      MOSUNNY   57  57 100 CALM      29.86S FOG
GRAND RAPIDS   CLOUDY    57  55  94 CALM      29.89R VSB 1/4
CRANE LAKE     FOG       54  54 100 CALM      29.92R VSB 1/4
ORR            CLOUDY    57  55  94 CALM      29.88R FOG
COOK           FOG       54  54 100 CALM      29.90S VSB 3/4
WALKER         PTSUNNY   63  62  97 CALM      29.85F
$$
MNZ012-019>021-037-201400-
   Northeast Minnesota

CITY           SKY/WX    TMP DP  RH WIND       PRES   REMARKS
DULUTH         CLOUDY    62  59  90 CALM      29.88R
ELY            CLOUDY    63  61  94 CALM      29.89S
HIBBING        CLOUDY    58  56  93 CALM      29.89R
EVELETH        CLOUDY    61  59  94 CALM      29.90R
DULUTH HARBOR  CLOUDY    63  61  94 CALM      29.88R
TWO HARBORS    CLOUDY    61  55  82 CALM      29.87R
SILVER BAY     SUNNY     57  57 100 CALM      29.86S
GRAND MARAIS     N/A     63  60  90 W5        29.85R
G MARAIS ARPRT CLOUDY    61  55  82 NW3       29.89R
$$
MNZ029>031-032-039>041-046>048-054>057-064-201400-
   West Central Minnesota

CITY           SKY/WX    TMP DP  RH WIND       PRES   REMARKS
FERGUS FALLS   SUNNY     66  63  88 SE6       29.83R
WHEATON        SUNNY     61  61 100 E7        29.82S FOG
MORRIS         MOSUNNY   66  64  94 E6        29.82S
ALEXANDRIA     CLOUDY    64  63  96 SE7       29.87R FOG
ELBOW LAKE     FAIR      65  63  90 SE6       29.84R
WADENA         FOG       61  61 100 E6        29.85R VSB 1/4
GLENWOOD       MOSUNNY   63  63 100 SE3       29.87R FOG
APPLETON       PTSUNNY   66  64  94 SE7       29.82S
BENSON         PTSUNNY   66  64  94 S8        29.84S
ORTONVILLE     PTSUNNY   64  63  94 SE7       29.81S FOG
MADISON        CLOUDY    66  64  94 SE5       29.81F FOG
WILLMAR        FAIR      64  63  94 SE3       29.87R FOG
$$
MNZ033>034-036-042>043-049>051-058-059-201400-
   Central Minnesota

CITY           SKY/WX    TMP DP  RH WIND       PRES   REMARKS
ST CLOUD       CLOUDY    64  62  93 S7        29.87R
SAUK CENTRE    FOG       62  61  99 SE5       29.88R VSB<1/4
PAYNESVILLE    PTSUNNY   64  64 100 E5        29.88R
AITKIN         HAZE      61  54  77 CALM      29.86R VSB 1/2
PINE RIVER     FOG       61  61 100 CALM      29.90R VSB 1/4
BRAINERD       SUNNY     61  60  97 CALM      29.86S
STAPLES        FOG       61  61 100 CALM      29.86R VSB 1/2
LONG PRAIRIE   FOG       61  61 100 SE6       29.88R VSB<1/4
LITTLE FALLS   MOSUNNY   61  61 100 CALM      29.86S
LITCHFIELD     PTSUNNY   66  66 100 SE3       29.88R FOG
BUFFALO        MOSUNNY   65  63  91 CALM      29.88R
MAPLE LAKE     CLOUDY    66  65  99 CALM      29.88R FOG
$$
MNZ037-044-045-052-053-201400-
   East Central Minnesota

CITY           SKY/WX    TMP DP  RH WIND       PRES   REMARKS
PRINCETON      PTSUNNY   63  63 100 NE2       29.86R
MORA           CLOUDY    59  57  94 E3        29.89R FOG
CAMBRIDGE      SUNNY     64  57  77 CALM      29.85R
RUSH CITY      FOG       59  58  97 NE3       29.87R VSB 1
MOOSE LAKE     CLOUDY    59  59 100 NE3       29.86S FOG
HINCKLEY       CLOUDY    59  59 100 CALM      29.88R
CLOQUET        CLOUDY    61  59  94 CALM      29.88S
MCGREGOR       CLOUDY    55  55 100 CALM      29.88S VSB 1/2
$$
MNZ071>073-080-081-089-090-097-098-201400-
   Southwest Minnesota

CITY           SKY/WX    TMP DP  RH WIND       PRES   REMARKS
MONTEVIDEO     CLOUDY    66  66 100 S5        29.84F
GRANITE FALLS  CLOUDY    65  64  97 SE5       29.85F
CANBY          CLOUDY    64  63  95 SE3       29.82F
MARSHALL       CLOUDY    66  61  82 CALM      29.82F
REDWOOD FALLS  CLOUDY    66  64  93 CALM      29.84S
OLIVIA         CLOUDY    68  64  88 CALM      29.84F
PIPESTONE      LGT RAIN  64  63  94 SE5       29.83S
WINDOM         CLOUDY    66  63  88 CALM      29.86F
WORTHINGTON    CLOUDY    64   9  11 E5        29.86R
JACKSON        CLOUDY    64  61  88 CALM      29.87F
TRACY          CLOUDY    69  64  85 S5        29.84F
SLAYTON        CLOUDY    64  64  97 CALM      29.85F
$$
MNZ065>067-074>077-082>085-091>093-201400-
   South Central Minnesota

CITY           SKY/WX    TMP DP  RH WIND       PRES   REMARKS
MANKATO        PTSUNNY   66  63  88 NE7       29.84F
NEW ULM        CLOUDY    66  66 100 CALM      29.86S FOG
ST JAMES       CLOUDY    66  63  88 CALM      29.87S FOG
FAIRMONT       CLOUDY    64  39  39 S3        29.87S
GLENCOE        FOG       64  62  91 CALM      29.86R VSB 3/4
FARIBAULT      PTSUNNY   68  63  83 CALM      29.87R HAZE
OWATONNA       PTSUNNY   66  64  94 CALM      29.86F FOG
WASECA         PTSUNNY   63  61  94 NE5       29.86F FOG
ALBERT LEA     PTSUNNY   68  66  94 SW5       29.87R FOG
$$
MNZ078>079-086>088-094>096-201400-
   Southeast Minnesota

CITY           SKY/WX    TMP DP  RH WIND       PRES   REMARKS
ROCHESTER      MOSUNNY   66  64  93 N5        29.88F FOG
RED WING       SUNNY     66  63  88 CALM      29.86R
STANTON        FOG       63  61  94 CALM      29.86R VSB 1
DODGE CENTER   MOSUNNY   66  64  94 CALM      29.87S FOG
WINONA         FOG       63  63 100 CALM      29.87R VSB<1/4
AUSTIN         PTSUNNY   64  64 100 SW5       29.87R FOG
PRESTON        SUNNY     64  64 100 CALM      29.88S FOG
$$
ABBREVIATIONS USED IN REMARKS
   TC - TEMPERATURES IN CELSIUS
  WCI - WIND CHILL INDEX
   HX - HEAT INDEX
  VSB - VISIBILITY
$$



USA.gov is the U.S. government's official web portal to all federal, state and local government web resources and services.